Showing default

OPS 4412 (TRANSIT 9), 801

Orbit data source: Space-Track

OPS 4412 (TRANSIT 9), 801 is a payload satellite owned by USN BuWeps (US) in LEO that was launched on Thu, 04 Jun 1964 UTC via an SCOUT X-4 launch vehicle from the Air Force Western Test Range (AFWTR). Payload-class satellites include a variety of spacecraft equipped with specific instruments for various scientific and technological missions. These include communications satellites like Starlink; space stations such as the ISS; scientific satellites like the Hubble; Earth observation satellites from companies like Planet Labs, Umbra, and HawkEye 360; GPS; miniature CubeSats for education and research; and military/defense satellites.

Loading next visibility...
Identifier
801, 1964-026A
Orbit
LEO
Country
Flag of USUS
Related business
Manufacturer
APL
Mission
Spacecraft
Bus & Motor
TRANSIT 5, Unknown motor
Mass
54 kg wet, 54 kg dry
Launch date (UTC)
1964-06-04 (62 years ago)
Launch vehicle
SCOUT X-4
Launch site
Air Force Western Test Range (AFWTR)
Object type
Payload
Rocket body
Debris
Shape & HBR
Unknown
Radar Cross Section
Large (>1 m²)

Expand to show TLE details & history
Last TLE update: 13 hours ago

TLE from 13 hours ago
0 OPS 4412 (TRANSIT 9)
1 00801U 64026A   25347.29360025  .00000778  00000-0  38016-3 0  9998
2 00801  90.4499 178.4105 0045515 264.6983  94.9011 14.16884829159820
Epoch: 2025-12-13T07:02Z
TLE epoch observation values (Epoch: 2025-12-13T07:02:47.061Z)
Latitude
-0.00006°
Longitude
-9.50853°
Altitude
841.912 km
Speed
7.43 km/s
True Right ascension
11h 53m 38s
True Declination
0° 00' 00"
Sunlit
Object was in daylight at epoch
Visualization orbit readout
Latitude
Unknown
Longitude
Unknown
Altitude
Unknown
Speed
Unknown
Apparent Right ascension
Unknown
Apparent Declination
Unknown
Sunlit
N/A
Visualization observer readout
Local Sidereal Time
18:15:29
Azimuth
Unknown
Elevation
Unknown
Doppler factor
Unknown
Orbital elements
Apogee altitude
865.682 km
Perigee altitude
800.04 km
Semi-major axis
7,210.998 km
Eccentricity
0.00455
Inclination
90.4499°
RAAN
178.4105°
Arg. of periapsis
264.6983°
True anomaly
95.4205°
Mean anomaly
94.9011°
Eccentric anomaly
95.16082°
Mean motion
3.54446 °/min
Orbital period
101.57 mins
BSTAR
0.00038016
Loading maneuver chart data...
Computing Atmospheric mass density...
Loading historical data...
Loading historical data...
Loading historical data...
Loading historical data...
Loading historical data...
Loading historical data...
Loading historical data...

Documentation

Showing up to 5 results
|